Weather History for Gillette, WY

Change the Weather History Date:

Thursday, October 3, 2013

  Actual Average Record
Temperature  
Mean Temperature 39 °F 50 °F  
Max Temperature 46 °F 64 °F 85 °F (1963)
Min Temperature 32 °F 36 °F 21 °F (1999)
Degree Days  
Heating Degree Days 26 15  
Month to date heating degree days 55 44  
Since 1 July heating degree days 196 339  
Cooling Degree Days 0 0  
Month to date cooling degree days 0 0  
Year to date cooling degree days 615 500  
Moisture  
Dew Point 39 °F    
Average Humidity 90    
Maximum Humidity 100    
Minimum Humidity 81    
Precipitation  
Precipitation 1.17 in 0.04 in 1.17 in (2013)
Month to date precipitation 1.18 0.15  
Year to date precipitation 16.99 11.82  
Sea Level Pressure  
Sea Level Pressure 29.97 in    
Wind  
Wind Speed 12 mph (NE)    
Max Wind Speed 20 mph    
Max Gust Speed 24 mph    
Visibility 8 miles    
Events Rain , Snow    
T = Trace of Precipitation, MM = Missing Value Source: NWS Daily Summary

Daily Weather History Graph

Daily Weather History Graph

Search for Another Location

Airport:

Trip Planner

Search our weather history database for the weather conditions in past years. The results will help you decide how hot, cold, wet, or windy it might be!

Date:

Astronomy

Oct. 03, 2013 Rise Set
Actual Time 7:02 AM MDT 6:38 PM MDT
Civil Twilight 6:33 AM MDT 7:07 PM MDT
Nautical Twilight 6:00 AM MDT 7:41 PM MDT
Astronomical Twilight 5:26 AM MDT 8:15 PM MDT
Moon 5:36 AM MDT (10/3) 5:49 PM MDT (10/3)
Length of Visible Light 12h 33m
Length of Day
11h 35m
Waning Crescent, 2% of the Moon is Illuminated
Oct 3
Waning Crescent
Oct 4
New
Oct 11
First Quarter
Oct 18
Full
Oct 26
Last Quarter

Hourly Weather History & Observations

Time (MDT) Temp. Windchill Dew Point Humidity Pressure Visibility Wind Dir Wind Speed Gust Speed Precip Events Conditions
12:53 AM 44.1 °F 39.0 °F 39.9 °F 85% 29.90 in 10.0 mi NNE 9.2 mph - N/A   Overcast
1:53 AM 43.0 °F 36.4 °F 39.0 °F 86% 29.92 in 10.0 mi North 12.7 mph - N/A   Overcast
2:53 AM 41.0 °F 33.9 °F 39.0 °F 93% 29.94 in 9.0 mi North 12.7 mph - 0.01 in Rain Light Rain
3:24 AM 39.2 °F 32.0 °F 39.2 °F 100% 29.97 in 10.0 mi NNE 11.5 mph - 0.03 in Rain Light Rain
3:53 AM 41.0 °F 35.2 °F 39.0 °F 93% 29.95 in 10.0 mi NE 9.2 mph - 0.04 in   Overcast
4:12 AM 39.2 °F 32.5 °F 39.2 °F 100% 29.97 in 6.0 mi NE 10.4 mph - 0.01 in Rain Light Rain
4:53 AM 39.9 °F 33.4 °F 39.0 °F 97% 29.93 in 10.0 mi ENE 10.4 mph - 0.03 in   Overcast
5:53 AM 39.9 °F 33.9 °F 39.0 °F 97% 29.90 in 10.0 mi East 9.2 mph 19.6 mph N/A   Mostly Cloudy
6:53 AM 41.0 °F 35.8 °F 39.9 °F 96% 29.89 in 10.0 mi ESE 8.1 mph - N/A   Mostly Cloudy
7:46 AM 42.8 °F 38.6 °F 39.2 °F 87% 29.91 in 10.0 mi NNW 6.9 mph 19.6 mph N/A   Mostly Cloudy
7:53 AM 42.1 °F 37.7 °F 39.9 °F 92% 29.89 in 10.0 mi NE 6.9 mph - N/A   Mostly Cloudy
8:53 AM 43.0 °F 37.7 °F 39.9 °F 89% 29.89 in 10.0 mi East 9.2 mph - N/A   Mostly Cloudy
9:11 AM 42.8 °F 38.6 °F 39.2 °F 87% 29.91 in 10.0 mi NE 6.9 mph - N/A   Overcast
9:53 AM 44.1 °F 39.5 °F 41.0 °F 89% 29.91 in 10.0 mi NE 8.1 mph - N/A   Overcast
10:53 AM 45.0 °F 40.1 °F 39.9 °F 82% 29.92 in 10.0 mi ENE 9.2 mph - N/A   Overcast
11:12 AM 44.6 °F 39.2 °F 41.0 °F 87% 29.93 in 10.0 mi NE 10.4 mph - N/A   Mostly Cloudy
11:22 AM 44.6 °F 38.1 °F 41.0 °F 87% 29.92 in 10.0 mi NE 13.8 mph - N/A   Mostly Cloudy
11:53 AM 45.0 °F 39.3 °F 41.0 °F 86% 29.91 in 10.0 mi NE 11.5 mph - N/A   Overcast
12:30 PM 44.6 °F 38.4 °F 39.2 °F 81% 29.93 in 10.0 mi NE 12.7 mph - N/A   Overcast
12:53 PM 45.0 °F 40.6 °F 39.9 °F 82% 29.93 in 10.0 mi NNE 8.1 mph - 0.00 in Rain Light Rain
1:19 PM 44.6 °F 38.4 °F 41.0 °F 87% 29.92 in 8.0 mi ENE 12.7 mph - 0.01 in Rain Light Rain
1:53 PM 45.0 °F 38.5 °F 42.1 °F 90% 29.92 in 10.0 mi ENE 13.8 mph - 0.02 in   Overcast
2:53 PM 44.1 °F 38.1 °F 41.0 °F 89% 29.94 in 8.0 mi ENE 11.5 mph - 0.03 in Rain Light Rain
3:53 PM 43.0 °F 36.4 °F 41.0 °F 93% 29.95 in 7.0 mi ENE 12.7 mph - 0.07 in Rain Light Rain
4:53 PM 42.1 °F 34.9 °F 39.0 °F 89% 29.99 in 6.0 mi ENE 13.8 mph - 0.10 in Rain Light Rain
5:49 PM 39.2 °F 31.6 °F 37.4 °F 93% 29.99 in 6.0 mi ENE 12.7 mph - 0.12 in Rain Light Rain
5:53 PM 39.9 °F 33.4 °F 37.9 °F 93% 30.02 in 6.0 mi ENE 10.4 mph - 0.13 in Rain Light Rain
6:02 PM 39.2 °F 31.2 °F 37.4 °F 93% 30.00 in 5.0 mi NE 13.8 mph 19.6 mph 0.02 in Rain Light Rain
6:12 PM 39.2 °F 31.2 °F 37.4 °F 93% 30.01 in 5.0 mi ENE 13.8 mph - 0.04 in Rain Rain
6:28 PM 39.2 °F 30.2 °F 37.4 °F 93% 30.00 in 6.0 mi ENE 17.3 mph - 0.07 in Rain Light Rain
6:46 PM 39.2 °F 32.0 °F 37.4 °F 93% 30.00 in 8.0 mi NE 11.5 mph - 0.11 in Rain Light Rain
6:53 PM 39.9 °F 32.1 °F 37.0 °F 89% 30.02 in 7.0 mi NE 13.8 mph - 0.11 in Rain Light Rain
7:00 PM 39.2 °F 29.8 °F 37.4 °F 93% 29.99 in 8.0 mi NE 18.4 mph - 0.01 in Rain Light Rain
7:45 PM 39.2 °F 30.2 °F - N/A% 30.01 in 9.0 mi NE 17.3 mph 23.0 mph 0.07 in Rain Light Rain
7:53 PM 37.9 °F 28.9 °F - N/A% 30.04 in 10.0 mi NNE 16.1 mph 23.0 mph 0.08 in Rain Light Rain
8:08 PM 37.4 °F 28.5 °F - N/A% 30.03 in 10.0 mi NNE 15.0 mph 19.6 mph 0.01 in Rain Light Rain
8:53 PM 36.0 °F 26.7 °F - N/A% 30.09 in 6.0 mi NNE 15.0 mph - 0.07 in Rain Light Rain
9:46 PM 33.8 °F 25.8 °F - N/A% 30.09 in 1.8 mi North 10.4 mph - 0.08 in Snow Light Snow
10:53 PM 32.0 °F 22.5 °F - N/A% 30.11 in 0.8 mi NNE 12.7 mph - 0.14 in Snow Light Snow
11:08 PM 32.0 °F 23.0 °F - N/A% 30.10 in 1.0 mi NNE 11.5 mph - 0.03 in Snow Light Snow
11:38 PM 32.0 °F 22.5 °F - N/A% 30.11 in 0.8 mi NE 12.7 mph - 0.08 in Snow Light Snow
11:53 PM 32.0 °F 21.6 °F - N/A% 30.12 in 0.8 mi NNE 15.0 mph - 0.13 in Snow Light Snow